Change the Weather History Date:

Tuesday, July 16, 2013

  Actual Average Record
Temperature  
Mean Temperature 67 °F -  
Max Temperature 72 °F 93 °F 108 °F (2011)
Min Temperature 64 °F 67 °F 56 °F (1973)
Cooling Degree Days 2    
Growing Degree Days 17 (Base 50)    
Moisture  
Dew Point 65 °F    
Average Humidity 93    
Maximum Humidity 100    
Minimum Humidity 84    
Precipitation  
Precipitation 0.79 in - - ()
Sea Level Pressure  
Sea Level Pressure 30.20 in    
Wind  
Wind Speed 9 mph (SE)    
Max Wind Speed 21 mph    
Max Gust Speed 30 mph    
Visibility 7 miles    
Events Rain    
Averages and records for this station are not official NWS values.
T = Trace of Precipitation, MM = Missing Value Source: NWS Daily Summary

Daily Weather History Graph

Daily Weather History Graph

Search for Another Location

Airport or City:

Trip Planner

Search our weather history database for the weather conditions in past years. The results will help you decide how hot, cold, wet, or windy it might be!

Date:

Astronomy

Jul. 16, 2013 Rise Set
Actual Time 6:34 AM CDT 8:56 PM CDT
Civil Twilight 6:04 AM CDT 9:25 PM CDT
Nautical Twilight 5:28 AM CDT 10:01 PM CDT
Astronomical Twilight 4:48 AM CDT 10:41 PM CDT
Moon 2:43 PM CDT (7/16) 12:59 AM CDT (7/16)
Length of Visible Light 15h 21m
Length of Day
14h 22m
First Quarter, 56% of the Moon is Illuminated
Jul 16
First Quarter
Jul 22
Full
Jul 29
Last Quarter
Aug 6
New
Aug 14
First Quarter

Hourly Weather History & Observations

Time (CDT) Temp. Dew Point Humidity Pressure Visibility Wind Dir Wind Speed Gust Speed Precip Events Conditions
12:36 AM 66.2 °F 64.4 °F 94% 30.17 in 10.0 mi SE 5.8 mph - 0.00 in   Overcast
12:48 AM 64.4 °F 64.4 °F 100% 30.18 in 10.0 mi SE 4.6 mph - 0.00 in   Overcast
12:53 AM 66.0 °F 64.0 °F 93% 30.12 in 10.0 mi SE 5.8 mph - 0.00 in   Overcast
1:20 AM 64.4 °F 64.4 °F 100% 30.17 in 10.0 mi SSE 9.2 mph - N/A   Overcast
1:36 AM 64.4 °F 64.4 °F 100% 30.18 in 8.0 mi SE 8.1 mph - 0.00 in Rain Light Rain
1:53 AM 64.9 °F 64.0 °F 97% 30.11 in 10.0 mi SE 9.2 mph - 0.00 in   Overcast
2:02 AM 64.4 °F 64.4 °F 100% 30.17 in 8.0 mi SE 9.2 mph - N/A   Overcast
2:53 AM 66.0 °F 64.0 °F 93% 30.11 in 10.0 mi East 4.6 mph - 0.00 in   Overcast
3:15 AM 66.2 °F 64.4 °F 94% 30.17 in 7.0 mi East 4.6 mph - N/A   Overcast
3:53 AM 66.0 °F 64.9 °F 96% 30.11 in 10.0 mi ESE 4.6 mph - N/A   Overcast
4:06 AM 66.2 °F 64.4 °F 94% 30.16 in 10.0 mi ESE 5.8 mph - N/A   Overcast
4:53 AM 66.9 °F 64.9 °F 93% 30.11 in 9.0 mi SE 4.6 mph - N/A   Overcast
5:11 AM 66.2 °F 64.4 °F 94% 30.17 in 3.0 mi ESE 6.9 mph - 0.00 in Rain Light Rain
5:53 AM 66.0 °F 64.9 °F 96% 30.12 in 10.0 mi SE 8.1 mph - 0.00 in   Overcast
6:20 AM 66.2 °F 64.4 °F 94% 30.18 in 2.0 mi East 5.8 mph - 0.09 in Rain Heavy Rain
6:26 AM 66.2 °F 64.4 °F 94% 30.18 in 3.0 mi East 5.8 mph - 0.09 in Rain Rain
6:53 AM 66.0 °F 64.9 °F 96% 30.13 in 5.0 mi East 5.8 mph - 0.11 in Rain Rain
7:30 AM 66.2 °F 64.4 °F 94% 30.19 in 8.0 mi SE 13.8 mph - 0.01 in Rain Light Rain
7:53 AM 66.0 °F 64.0 °F 93% 30.14 in 10.0 mi SE 11.5 mph - 0.01 in Rain Light Rain
8:13 AM 66.2 °F 64.4 °F 94% 30.20 in 10.0 mi ESE 9.2 mph - 0.00 in Rain Light Rain
8:53 AM 68.0 °F 64.9 °F 90% 30.16 in 10.0 mi ESE 13.8 mph - 0.00 in   Overcast
9:07 AM 68.0 °F 66.2 °F 94% 30.22 in 10.0 mi ESE 9.2 mph - N/A   Overcast
9:21 AM 68.0 °F 64.4 °F 88% 30.22 in 10.0 mi SE 13.8 mph 20.7 mph N/A   Overcast
9:27 AM 68.0 °F 64.4 °F 88% 30.22 in 6.0 mi ESE 9.2 mph 20.7 mph N/A   Overcast
9:37 AM 68.0 °F 66.2 °F 94% 30.22 in 9.0 mi ESE 12.7 mph 18.4 mph N/A   Overcast
9:53 AM 68.0 °F 64.9 °F 90% 30.18 in 10.0 mi ESE 9.2 mph 18.4 mph N/A   Overcast
10:15 AM 69.8 °F 66.2 °F 88% 30.23 in 9.0 mi ESE 13.8 mph - N/A   Overcast
10:28 AM 69.8 °F 66.2 °F 88% 30.23 in 10.0 mi ESE 10.4 mph - N/A   Overcast
10:53 AM 69.1 °F 66.0 °F 90% 30.17 in 10.0 mi ESE 13.8 mph 18.4 mph 0.00 in   Overcast
11:53 AM 70.0 °F 66.0 °F 87% 30.18 in 8.0 mi ESE 13.8 mph 18.4 mph 0.00 in Rain Light Rain
12:08 PM 69.8 °F 66.2 °F 88% 30.24 in 4.0 mi SE 16.1 mph 21.9 mph 0.01 in Rain Light Rain
12:15 PM 69.8 °F 66.2 °F 88% 30.24 in 1.8 mi SSE 19.6 mph 26.5 mph 0.05 in Rain Light Rain
12:28 PM 66.2 °F 64.4 °F 94% 30.24 in 3.0 mi South 18.4 mph 27.6 mph 0.10 in Rain Light Rain
12:37 PM 66.2 °F 64.4 °F 94% 30.24 in 1.8 mi SSE 18.4 mph 29.9 mph 0.15 in Rain Rain
12:46 PM 66.2 °F 64.4 °F 94% 30.24 in 1.5 mi SE 15.0 mph - 0.19 in Rain Heavy Rain
12:53 PM 66.0 °F 64.0 °F 93% 30.19 in 1.5 mi SSE 17.3 mph - 0.25 in Rain Heavy Rain
1:01 PM 66.2 °F 64.4 °F 94% 30.23 in 1.0 mi SSE 15.0 mph 27.6 mph 0.09 in Rain Heavy Rain
1:07 PM 66.2 °F 64.4 °F 94% 30.23 in 2.0 mi South 13.8 mph 27.6 mph 0.10 in Rain Rain
1:15 PM 68.0 °F 66.2 °F 94% 30.23 in 8.0 mi SSE 11.5 mph - 0.10 in Rain Light Rain
1:53 PM 69.1 °F 66.9 °F 93% 30.18 in 7.0 mi SE 6.9 mph - 0.10 in Rain Light Rain
2:13 PM 69.8 °F 66.2 °F 88% 30.23 in 1.8 mi SSE 9.2 mph - 0.06 in Rain Heavy Rain
2:34 PM 68.0 °F 66.2 °F 94% 30.23 in 2.0 mi SSE 6.9 mph - 0.17 in Rain Rain
2:42 PM 69.8 °F 66.2 °F 88% 30.22 in 7.0 mi SSE 3.5 mph - 0.17 in Rain Light Rain
2:53 PM 70.0 °F 68.0 °F 93% 30.17 in 10.0 mi SE 3.5 mph - 0.17 in   Overcast
3:27 PM 68.0 °F 64.4 °F 88% 30.23 in 10.0 mi SSW 19.6 mph 24.2 mph 0.00 in Rain Light Rain
3:34 PM 66.2 °F 64.4 °F 94% 30.22 in 5.0 mi SSW 17.3 mph - 0.01 in Rain Rain
3:45 PM 66.2 °F 64.4 °F 94% 30.24 in 1.8 mi South 20.7 mph 26.5 mph 0.09 in Rain Heavy Rain
3:53 PM 66.0 °F 64.9 °F 96% 30.19 in 1.8 mi South 13.8 mph 26.5 mph 0.13 in Rain Heavy Rain
3:56 PM 66.2 °F 64.4 °F 94% 30.24 in 3.0 mi South 15.0 mph - 0.00 in Rain Rain
4:42 PM 66.2 °F 64.4 °F 94% 30.26 in 10.0 mi South 12.7 mph - 0.02 in Rain Light Rain
4:51 PM 66.2 °F 64.4 °F 94% 30.26 in 9.0 mi South 12.7 mph - 0.02 in Rain Rain
4:53 PM 66.0 °F 64.0 °F 93% 30.21 in 9.0 mi South 12.7 mph - 0.02 in Rain Light Rain
5:53 PM 66.9 °F 64.0 °F 90% 30.19 in 10.0 mi South 5.8 mph - 0.00 in   Scattered Clouds
6:53 PM 68.0 °F 64.0 °F 87% 30.19 in 10.0 mi SSE 6.9 mph - N/A   Clear
7:53 PM 69.1 °F 64.0 °F 84% 30.20 in 10.0 mi SSE 3.5 mph - N/A   Clear
8:53 PM 68.0 °F 64.9 °F 90% 30.21 in 10.0 mi ESE 3.5 mph - N/A   Partly Cloudy
9:53 PM 66.9 °F 64.9 °F 93% 30.23 in 10.0 mi NNE 3.5 mph - N/A   Scattered Clouds
10:53 PM 66.9 °F 66.0 °F 97% 30.24 in 10.0 mi Calm Calm - N/A   Mostly Cloudy
11:37 PM 68.0 °F 66.2 °F 94% 30.31 in 10.0 mi Calm Calm - N/A   Overcast
11:53 PM 66.9 °F 64.9 °F 93% 30.26 in 10.0 mi ENE 3.5 mph - N/A   Scattered Clouds